GW6489 Weather Reports


time (UTC)temp
F
wind
direction
speed
knots
gust
knots
rain 1hr
in
rain 24hr
in
rain mn
in
humidity
%
barometer
mb
20260503214728 62 212 1.7 2.6 0.00 0.00 0.00 26 989.9
20260503214224 62 88 0.9 2.6 0.00 0.00 0.00 26 990.0
20260503213722 62 98 0.0 0.9 0.00 0.00 0.00 27 990.2
20260503213219 62 170 2.6 5.2 0.00 0.00 0.00 26 990.1
20260503212716 62 132 0.9 3.5 0.00 0.00 0.00 27 990.0
20260503212214 62 203 1.7 2.6 0.00 0.00 0.00 26 990.2
20260503211712 62 102 0.9 1.7 0.00 0.00 0.00 26 990.1
20260503211207 61 103 3.5 3.5 0.00 0.00 0.00 27 990.1
20260503210703 61 97 0.0 1.7 0.00 0.00 0.00 25 989.9
20260503210201 61 133 0.0 1.7 0.00 0.00 0.00 28 990.1
20260503205655 62 97 0.9 1.7 0.00 0.00 0.00 27 990.2
20260503205152 63 86 3.5 3.5 0.00 0.00 0.00 27 990.3
20260503204649 63 241 0.0 0.9 0.00 0.00 0.00 29 990.4
20260503204147 62 93 1.7 2.6 0.00 0.00 0.00 26 990.1
20260503203643 61 77 0.0 1.7 0.00 0.00 0.00 29 990.4
20260503203141 61 50 1.7 2.6 0.00 0.00 0.00 28 990.4
20260503202638 61 97 0.0 0.9 0.00 0.00 0.00 29 990.4
20260503202136 61 92 0.0 1.7 0.00 0.00 0.00 27 990.5
20260503201634 61 156 1.7 2.6 0.00 0.00 0.00 27 990.3
20260503201131 61 146 1.7 6.1 0.00 0.00 0.00 28 990.7
20260503200627 61 224 0.0 0.9 0.00 0.00 0.00 27 990.6
20260503200124 62 91 0.9 1.7 0.00 0.00 0.00 25 990.7
20260503195621 61 122 2.6 3.5 0.00 0.00 0.00 26 990.9
20260503195118 62 110 0.9 1.7 0.00 0.00 0.00 26 991.0
20260503194615 62 178 3.5 5.2 0.00 0.00 0.00 25 990.9
20260503194115 62 195 1.7 1.7 0.00 0.00 0.00 26 991.0
20260503193613 62 194 0.9 7.0 0.00 0.00 0.00 26 990.9
20260503193108 62 102 1.7 2.6 0.00 0.00 0.00 28 991.1
20260503192604 62 115 1.7 2.6 0.00 0.00 0.00 25 991.2
20260503192100 62 143 0.9 2.6 0.00 0.00 0.00 27 991.4
20260503191557 62 118 2.6 3.5 0.00 0.00 0.00 26 991.5
20260503191054 62 99 0.9 1.7 0.00 0.00 0.00 28 991.5
20260503190551 62 106 2.6 2.6 0.00 0.00 0.00 28 991.4
20260503190048 60 233 4.3 5.2 0.00 0.00 0.00 29 991.4
20260503185544 61 181 4.3 6.1 0.00 0.00 0.00 27 991.8
20260503185044 60 210 2.6 3.5 0.00 0.00 0.00 28 991.8
20260503184540 60 193 2.6 6.1 0.00 0.00 0.00 27 991.8
20260503184037 61 79 1.7 5.2 0.00 0.00 0.00 29 991.8
20260503183533 60 149 1.7 3.5 0.00 0.00 0.00 32 991.9
20260503183031 60 120 1.7 1.7 0.00 0.00 0.00 30 992.2
20260503182529 60 177 2.6 2.6 0.00 0.00 0.00 29 992.0
20260503182027 60 176 0.0 1.7 0.00 0.00 0.00 30 992.1
20260503181523 60 103 0.0 0.9 0.00 0.00 0.00 30 992.1
20260503181019 60 109 1.7 2.6 0.00 0.00 0.00 28 992.0
20260503180517 60 105 0.9 1.7 0.00 0.00 0.00 31 992.2
20260503180014 60 47 0.9 1.7 0.00 0.00 0.00 31 992.0
20260503175512 60 91 0.0 2.6 0.00 0.00 0.00 29 992.1
20260503175008 59 184 0.9 3.5 0.00 0.00 0.00 30 992.2
20260503174506 58 102 0.9 5.2 0.00 0.00 0.00 33 992.4
20260503174002 58 78 0.9 1.7 0.00 0.00 0.00 33 992.4
20260503173457 58 195 1.7 5.2 0.00 0.00 0.00 31 992.4
20260503172954 58 221 0.0 0.0 0.00 0.00 0.00 33 992.3
20260503172451 58 232 3.5 5.2 0.00 0.00 0.00 32 992.5
20260503171948 58 104 2.6 3.5 0.00 0.00 0.00 31 992.5
20260503171445 58 210 3.5 5.2 0.00 0.00 0.00 31 992.6
20260503170943 57 212 0.9 1.7 0.00 0.00 0.00 33 992.7
20260503170438 58 94 2.6 2.6 0.00 0.00 0.00 32 992.9
20260503150831 53 110 0.9 2.6 0.00 0.00 0.00 39 994.0
20260503150327 53 269 1.7 5.2 0.00 0.00 0.00 39 994.2
20260503140251 50 221 2.6 3.5 0.00 0.00 0.00 44 993.7
20260503131221 48 236 0.9 1.7 0.00 0.00 0.00 44 993.9
20260503130718 49 192 2.6 5.2 0.00 0.00 0.00 44 994.0
20260503130215 49 186 0.0 2.6 0.00 0.00 0.00 47 993.8
20260503120141 46 65 0.0 0.0 0.00 0.00 0.00 56 993.8
20260503110609 42 245 0.0 0.0 0.00 0.00 0.00 66 993.5
20260503110106 41 245 0.0 0.0 0.00 0.00 0.00 66 993.3
20260503090455 41 199 0.0 0.0 0.00 0.00 0.00 64 992.0
20260503081422 42 182 0.0 1.7 0.00 0.00 0.00 61 991.9
20260503080919 42 216 0.0 0.9 0.00 0.00 0.00 62 991.6
20260503080415 42 175 0.9 1.7 0.00 0.00 0.00 63 991.6
20260503072852 42 206 0.0 0.9 0.00 0.00 0.00 63 991.4
20260503072349 42 205 0.0 0.0 0.00 0.00 0.00 63 991.5
20260503071845 41 200 0.0 0.0 0.00 0.00 0.00 64 991.3
20260503071343 41 200 0.0 0.0 0.00 0.00 0.00 64 991.3
20260503070839 41 199 0.0 0.9 0.00 0.00 0.00 63 991.4
20260503070337 42 205 0.0 0.0 0.00 0.00 0.00 63 991.3
20260503060308 44 195 0.0 0.9 0.00 0.00 0.00 59 990.9
20260503054755 44 185 0.9 0.9 0.00 0.00 0.00 57 990.9
20260503054252 44 202 1.7 2.6 0.00 0.00 0.00 57 991.0
20260503053750 45 174 0.9 2.6 0.00 0.00 0.00 56 991.1
20260503053248 45 198 2.6 3.5 0.00 0.00 0.00 56 991.0
20260503052744 45 205 2.6 3.5 0.00 0.00 0.00 55 990.9
20260503052241 45 210 2.6 3.5 0.00 0.00 0.00 56 990.8
20260503051736 45 207 3.5 3.5 0.00 0.00 0.00 56 990.9
20260503051234 45 251 2.6 2.6 0.00 0.00 0.00 57 991.1
20260503050730 45 179 0.9 0.9 0.00 0.00 0.00 58 990.8
20260503050227 45 192 0.9 5.2 0.00 0.00 0.00 58 990.8
20260503045724 44 207 0.0 0.9 0.00 0.00 0.00 60 991.0
20260503045222 44 218 1.7 2.6 0.00 0.00 0.00 61 990.9
20260503044718 44 266 0.9 0.9 0.00 0.00 0.00 61 990.9
20260503044216 44 252 0.0 0.0 0.00 0.00 0.00 60 990.9
20260503043712 44 252 0.0 0.0 0.00 0.00 0.00 60 991.1
20260503043210 44 227 0.0 0.0 0.00 0.00 0.00 59 990.9
20260503042705 44 227 0.0 0.9 0.00 0.00 0.00 59 991.0
20260503042202 45 215 0.0 0.0 0.00 0.00 0.00 58 990.8
20260503041658 46 260 0.9 0.9 0.00 0.00 0.00 57 990.8
20260503041156 46 181 0.9 0.9 0.00 0.00 0.00 57 991.0
20260503040653 46 191 0.0 0.0 0.00 0.00 0.00 56 990.6
20260503040151 46 152 0.9 0.9 0.00 0.00 0.00 56 990.8
20260503035647 46 167 1.7 1.7 0.00 0.00 0.00 57 990.8
20260503035145 46 187 0.9 1.7 0.00 0.00 0.00 57 990.7
20260503034642 46 191 1.7 1.7 0.00 0.00 0.00 56 991.0
20260503034139 47 208 2.6 2.6 0.00 0.00 0.00 55 990.6
20260503033636 47 180 0.9 1.7 0.00 0.00 0.00 55 990.7
20260503033134 47 215 1.7 2.6 0.00 0.00 0.00 54 990.7
20260503032632 47 177 0.9 1.7 0.00 0.00 0.00 54 990.6
20260503032131 47 166 0.9 1.7 0.00 0.00 0.00 54 990.4
20260503031627 48 200 0.9 0.9 0.00 0.00 0.00 53 990.4
20260503031125 48 194 2.6 2.6 0.00 0.00 0.00 52 990.5
20260503030621 48 180 1.7 1.7 0.00 0.00 0.00 52 990.6
20260503030118 48 216 2.6 2.6 0.00 0.00 0.00 52 990.7
20260503025614 48 196 0.9 7.0 0.00 0.00 0.00 51 990.7
20260503025113 49 183 2.6 3.5 0.00 0.00 0.00 50 990.4
20260503024609 49 197 0.9 0.9 0.00 0.00 0.00 50 990.4
20260503024106 49 172 2.6 3.5 0.00 0.00 0.00 49 990.4
20260503023603 49 178 2.6 3.5 0.00 0.00 0.00 49 990.7
20260503023100 49 191 0.9 1.7 0.00 0.00 0.00 49 990.3
20260503022555 50 203 0.9 2.6 0.00 0.00 0.00 48 990.5
20260503022050 50 181 1.7 5.2 0.00 0.00 0.00 47 990.5
20260503021548 50 196 0.9 0.9 0.00 0.00 0.00 49 990.4
20260503021044 50 160 0.0 3.5 0.00 0.00 0.00 47 990.1
20260503020542 50 189 0.0 0.0 0.00 0.00 0.00 49 990.3
20260503020038 50 202 0.0 0.0 0.00 0.00 0.00 48 990.2
20260503015535 50 329 0.9 1.7 0.00 0.00 0.00 47 990.2
20260503015032 51 240 0.9 0.9 0.00 0.00 0.00 46 990.1
20260503014528 51 172 0.9 1.7 0.00 0.00 0.00 45 990.2
20260503014026 51 186 0.9 1.7 0.00 0.00 0.00 45 990.0
20260503013523 51 216 0.9 1.7 0.00 0.00 0.00 44 990.2
20260503013021 51 216 0.9 1.7 0.00 0.00 0.00 44 990.1
20260503012518 51 197 2.6 3.5 0.00 0.00 0.00 44 990.2
20260503012014 52 225 0.9 3.5 0.00 0.00 0.00 44 990.0
20260503011511 52 191 0.0 1.7 0.00 0.00 0.00 43 989.9
20260503011008 52 220 1.7 2.6 0.00 0.00 0.00 42 989.9
20260503010504 52 186 1.7 1.7 0.00 0.00 0.00 42 989.8
20260503010002 52 174 1.7 2.6 0.00 0.00 0.00 42 989.6
20260503005459 52 205 1.7 2.6 0.00 0.00 0.00 41 989.4
20260503004956 52 187 0.9 1.7 0.00 0.00 0.00 41 989.4
20260503004452 53 207 1.7 2.6 0.00 0.00 0.00 40 989.3
20260503003951 53 164 1.7 5.2 0.00 0.00 0.00 40 989.2
20260503003447 53 105 0.0 0.9 0.00 0.00 0.00 40 989.0
20260503002944 53 163 0.0 0.0 0.00 0.00 0.00 40 989.2
20260503002441 53 169 1.7 2.6 0.00 0.00 0.00 38 989.1
20260503001937 53 213 0.0 1.7 0.00 0.00 0.00 38 988.9
20260503001434 53 235 2.6 3.5 0.00 0.00 0.00 37 988.9
20260503000932 53 217 3.5 7.0 0.00 0.00 0.00 37 988.8
20260503000430 53 190 0.9 1.7 0.00 0.00 0.00 38 988.6
20260502235926 53 147 0.9 0.9 0.00 0.00 0.00 37 988.6
20260502235422 54 142 1.7 1.7 0.00 0.00 0.00 37 988.6
20260502234920 54 171 0.9 1.7 0.00 0.00 0.00 37 988.5
20260502234416 54 135 1.7 2.6 0.00 0.00 0.00 36 988.5
20260502233914 54 218 4.3 7.8 0.00 0.00 0.00 35 988.4
20260502233409 54 213 0.9 0.9 0.00 0.00 0.00 37 988.4
20260502232907 54 205 0.0 0.0 0.00 0.00 0.00 38 988.3
20260502232402 54 174 0.0 1.7 0.00 0.00 0.00 38 988.3
20260502231859 54 176 1.7 3.5 0.00 0.00 0.00 37 988.1
20260502231357 54 184 0.0 3.5 0.00 0.00 0.00 37 988.3
20260502230855 55 117 0.0 1.7 0.00 0.00 0.00 37 988.0
20260502230353 55 205 0.9 0.9 0.00 0.00 0.00 37 988.1
20260502225849 55 210 1.7 2.6 0.00 0.00 0.00 35 988.0
20260502225346 55 167 1.7 1.7 0.00 0.00 0.00 35 988.0
20260502224843 56 168 0.9 1.7 0.00 0.00 0.00 36 988.1
20260502224339 56 116 0.0 0.9 0.00 0.00 0.00 36 988.0
20260502223837 56 110 0.9 1.7 0.00 0.00 0.00 35 988.3
20260502223335 56 103 0.9 2.6 0.00 0.00 0.00 34 988.1
20260502222832 56 115 0.9 1.7 0.00 0.00 0.00 35 988.1
20260502222330 56 230 0.9 2.6 0.00 0.00 0.00 38 988.0
20260502221825 56 195 1.7 5.2 0.00 0.00 0.00 35 988.0
20260502221322 56 134 0.0 0.9 0.00 0.00 0.00 36 988.0
20260502220819 56 161 3.5 6.1 0.00 0.00 0.00 35 988.0
20260502220314 56 185 2.6 3.5 0.00 0.00 0.00 35 987.7
20260502215811 56 93 0.9 1.7 0.00 0.00 0.00 36 987.8
20260502215309 57 169 0.9 6.1 0.00 0.00 0.00 34 988.2